Location: Arthez
(43.0833°N, 0.2500°W)
Time: 03:10:49
(UTC+00:00)

NOSS 3-1 (A) - Pass Details

Date: 30 May 2022
Orbit: 711 x 1501 km, 63.4° (Epoch: 21 May)

Event Time Altitude Azimuth Distance (km) Brightness Sun altitude
Rises 23:34:34 0° 322° (NW) 3,972 7.6 -24.8°
Reaches altitude 10° 23:37:05 10° 320° (NW) 3,114 6.8 -24.8°
Maximum altitude 23:44:43 73° 238° (WSW) 1,395 4.1 -25.0°
Enters shadow 23:47:48 44° 167° (SSE) 1,843 4.4 -25.0°
